Location: Unspecified
(51.5147°N, 7.4673°E)
Time: 06:36:04
(UTC+01:00)

A-11 Canister half - Pass Details

Date: 22 February 2026
Orbit: 1512 x 1687 km, 47.2° (Epoch: 5 March)

Event Time Altitude Azimuth Distance (km) Brightness Sun altitude
Rises 19:54:38 0° 217° (SW) 4,929 12.1 -18.8°
Reaches altitude 10° 19:58:02 10° 210° (SSW) 3,946 11.4 -19.3°
Maximum altitude 20:07:14 41° 145° (SE) 2,284 9.5 -20.8°
Enters shadow 20:10:55 31° 105° (ESE) 2,622 9.6 -21.3°
Drops below altitude 10° 20:16:18 10° 81° (E) 3,901 - -22.1°
Sets 20:19:37 0° 74° (ENE) 4,870 - -22.6°
